GOSAT 2

Satellite information

Favourite Embed

Satellite Type and Status

PAYLOADIN ORBIT

Key statistics

Satellite GOSAT 2 at a glance.

Uptime

2443

Days in orbit

Revolutions

≈ 14.8

Per day

Orbit

SSO

Sun Synchronous Orbit

Inclination

97.9

Latest

Satellite identification and parameters

Extended collection of information and parameters for GOSAT 2.

Object identification

Identified? True

Debris? False

Object name: GOSAT 2

International designator: 2018-084B

Object number (NORAD): 43672

Object ID (CCSDS): 43672

Country: JAPAN (JPN)

Current information (Y/N): Y

RCS size: LARGE

Orbital parameters

Period: 97.019 minutes

Inclination: 97.8579 deg

SMA: 6994.1 km

Apoapsis: 616.961 km

Periapsis: 614.969 km

RAAN: 298.5451 deg

Eccentricy: 0.0001424

Argument of periapsis: 86.3317 deg

Mean anomaly: 273.806 deg

Mean motion: 14.84243122 rev/day

Mean motion (dot): 0.00001821 rev/day2

B* drag term: 0.00022383 1/REarth

Two-line elements (TLE)

Creation date: July 6, 2025, 6:05 p.m.

Reference frame: TEME

Reference center: EARTH

Epoch: July 6, 2025, 7:35 a.m. UTC

TLE line 0: 0 GOSAT 2

TLE line 1: 1 43672U 18084B 25187.31604243 .00001821 00000-0 22383-3 0 9992

TLE line 2: 2 43672 97.8579 298.5451 0001424 86.3317 273.8060 14.84243122362257

Live tracking on map

Real-time ground track for satellite GOSAT 2.

In-orbit conjunctions

There are no conjunctions computed for GOSAT 2, at the moment. Check back to stay up to date, as we update our databases every day.

Go to all conjunctions

Associated space launch

KhalifaSat is an Earth observation satellite for UAE. KhalifaSat will provide high-resolution imagery of Earth to be used for various purposes, including urban planning, change monitoring, area classification, monitoring environmental change and aiding relief efforts for natural disasters. GOSAT 2 (Greenhouse gases Observing SATellite 2) is a Japanese satellite dedicated to greenhouse gas measurement from space. It's a follow on to the GOSAT mission and includes such improvements as an ability to gather more precise data and monitor carbon monoxide concentrations.

GOSAT 2 was lifted into orbit during the mission ‘H-IIA 202 | KhalifaSat & GOSAT-2’, on board a H-IIA space rocket.

The launch took place on Oct. 29, 2018, 4:08 a.m. from Yoshinobu Launch Complex LP-1.

For more information about the launch, click the button.

Launch to space H-IIA 202 | KhalifaSat & GOSAT-2
H-IIA 202 | KhalifaSat & GOSAT-2

Agency: N/A

Status: Launch Successful

Launch date: Oct. 29, 2018, 4:08 a.m. UTC

Rocket: H-IIA

Launch pad: Yoshinobu Launch Complex LP-1

Location: Tanegashima Space Center, Japan

...

Latest news about this satellite

News about space launch
Japan Launches UAE's KhalifaSat and Climate-Monitoring Satellite Into Orbit


Newsletter sign-up

Weekly statistics, charts and insights to help you stay on top of the space industry.